Weather History for Worcester, MA

Change the Weather History Date:

Friday, March 29, 2013

  Actual Average Record
Temperature  
Mean Temperature 44 °F 39 °F  
Max Temperature 52 °F 48 °F 84 °F (1946)
Min Temperature 35 °F 31 °F 0 °F (1923)
Degree Days  
Heating Degree Days 21 26  
Month to date heating degree days 921 888  
Since 1 July heating degree days 5358 5725  
Cooling Degree Days 0 0  
Month to date cooling degree days 0 0  
Year to date cooling degree days 0 0  
Moisture  
Dew Point 28 °F    
Average Humidity 59    
Maximum Humidity 82    
Minimum Humidity 35    
Precipitation  
Precipitation 0.00 in 0.14 in 1.67 in (2010)
Month to date precipitation 3.37 3.92  
Year to date precipitation 10.25 10.64  
Sea Level Pressure  
Sea Level Pressure 30.04 in    
Wind  
Wind Speed 12 mph (WNW)    
Max Wind Speed 18 mph    
Max Gust Speed 24 mph    
Visibility 10 miles    
Events      
T = Trace of Precipitation, MM = Missing Value Source: NWS Daily Summary

Daily Weather History Graph

Daily Weather History Graph

Search for Another Location

Airport:

Trip Planner

Search our weather history database for the weather conditions in past years. The results will help you decide how hot, cold, wet, or windy it might be!

Date:

Astronomy

Mar. 29, 2013 Rise Set
Actual Time 6:34 AM EDT 7:10 PM EDT
Civil Twilight 6:06 AM EDT 7:38 PM EDT
Nautical Twilight 5:33 AM EDT 8:11 PM EDT
Astronomical Twilight 4:59 AM EDT 8:46 PM EDT
Moon 10:10 PM EDT (3/29) 7:38 AM EDT (3/29)
Length of Visible Light 13h 31m
Length of Day
12h 35m
Waning Gibbous, 93% of the Moon is Illuminated
Mar 29
Waning Gibbous
Apr 3
Last Quarter
Apr 10
New
Apr 18
First Quarter
Apr 25
Full

Hourly Weather History & Observations

Time (EDT) Temp. Windchill Dew Point Humidity Pressure Visibility Wind Dir Wind Speed Gust Speed Precip Events Conditions
12:54 AM 39.0 °F 31.0 °F 28.9 °F 67% 30.04 in 10.0 mi WNW 13.8 mph - N/A   Overcast
1:54 AM 39.0 °F 31.0 °F 28.9 °F 67% 30.04 in 10.0 mi NW 13.8 mph - N/A   Mostly Cloudy
2:54 AM 37.0 °F 28.5 °F 28.9 °F 73% 30.04 in 10.0 mi WNW 13.8 mph - N/A   Clear
3:54 AM 37.0 °F 28.9 °F 28.9 °F 73% 30.03 in 10.0 mi WNW 12.7 mph - N/A   Clear
4:54 AM 36.0 °F 27.5 °F 30.0 °F 79% 30.03 in 10.0 mi WNW 12.7 mph - N/A   Clear
5:54 AM 35.1 °F 26.9 °F 30.0 °F 82% 30.04 in 10.0 mi WNW 11.5 mph - N/A   Partly Cloudy
6:54 AM 35.1 °F 25.9 °F 28.9 °F 78% 30.04 in 10.0 mi WNW 13.8 mph - N/A   Clear
7:54 AM 37.0 °F 27.7 °F 30.0 °F 76% 30.05 in 10.0 mi WNW 16.1 mph - N/A   Clear
8:54 AM 41.0 °F 33.1 °F 30.0 °F 65% 30.06 in 10.0 mi NW 15.0 mph - N/A   Partly Cloudy
9:54 AM 43.0 °F 37.7 °F 30.0 °F 60% 30.06 in 10.0 mi NW 9.2 mph - N/A   Overcast
10:54 AM 45.0 °F 38.9 °F 30.0 °F 56% 30.06 in 10.0 mi NW 12.7 mph - N/A   Mostly Cloudy
11:54 AM 48.9 °F - 28.0 °F 44% 30.05 in 10.0 mi West 8.1 mph - N/A   Clear
12:54 PM 50.0 °F - 27.0 °F 41% 30.04 in 10.0 mi West 10.4 mph - N/A   Scattered Clouds
1:54 PM 51.1 °F - 25.0 °F 36% 30.01 in 10.0 mi WNW 11.5 mph 21.9 mph N/A   Mostly Cloudy
2:54 PM 52.0 °F - 26.1 °F 37% 30.00 in 10.0 mi WNW 12.7 mph - N/A   Overcast
3:54 PM 50.0 °F - 25.0 °F 38% 29.99 in 10.0 mi West 15.0 mph - N/A   Overcast
4:54 PM 50.0 °F - 25.0 °F 38% 29.99 in 10.0 mi WNW 12.7 mph - N/A   Mostly Cloudy
5:54 PM 46.9 °F - 26.1 °F 44% 30.01 in 10.0 mi WNW 11.5 mph - N/A   Overcast
6:54 PM 45.0 °F 38.9 °F 27.0 °F 49% 30.02 in 10.0 mi WNW 12.7 mph - N/A   Scattered Clouds
7:54 PM 42.1 °F 35.7 °F 27.0 °F 55% 30.03 in 10.0 mi NW 11.5 mph - N/A   Clear
8:54 PM 39.9 °F 32.9 °F 28.0 °F 63% 30.05 in 10.0 mi WNW 11.5 mph - N/A   Partly Cloudy
9:54 PM 39.0 °F 32.3 °F 28.9 °F 67% 30.06 in 10.0 mi NW 10.4 mph - N/A   Mostly Cloudy
10:54 PM 39.0 °F 32.8 °F 28.9 °F 67% 30.06 in 10.0 mi NW 9.2 mph - N/A   Overcast
11:54 PM 39.0 °F 32.8 °F 30.0 °F 70% 30.07 in 10.0 mi WNW 9.2 mph - N/A   Overcast